Regional Weather Roundup
Issued by NWS

Home | Current Version | Previous Version | Graphics & Text | Print | Product List | Glossary On
Versions: 1 2 3 4 5 6 7 8 9 10 11 12 13 14 15 16 17 18 19 20 21 22 23 24 25 26 27 28 29 30 31 32 33 34 35 36 37 38 39 40 41 42 43 44 45 46 47 48 49 50
000
ASUS43 KIND 282309
RWRIN

WEATHER ROUNDUP FOR INDIANA
NATIONAL WEATHER SERVICE INDIANAPOLIS IN
700 PM EDT TUE MAR 28 2017

NOTE: "FAIR" INDICATES FEW OR NO CLOUDS BELOW 12,000 FEET WITH NO
SIGNIFICANT WEATHER AND/OR OBSTRUCTIONS TO VISIBILITY.

* - STATION DOES NOT REPORT WEATHER SUCH AS PRECIPITATION OR FOG.

+ - STATION NOT QUALITY CONTROLLED BY THE NATIONAL WEATHER SERVICE.
    USE DATA WITH CAUTION...ESPECIALLY DEWPOINT AND RELATIVE
    HUMIDITY OBSERVATIONS.

INZ001>003-010>013-019-020-290000-
NORTHWEST INDIANA

CITY           SKY/WX    TMP DP  RH WIND       PRES   REMARKS
GARY /AIRPORT/ CLOUDY    41  37  87 N12       30.17R
KNOX *+        CLOUDY    43  30  61 N9        30.13R
LA PORTE +     CLOUDY    41  39  93 N10       30.14S FOG
MICHIGAN CITY+ CLOUDY    37  37 100 NE5       30.16R
MONTICELLO +   CLOUDY    47  40  77 N9        30.12R
RENSSELAER +   CLOUDY    43  39  87 N7        30.14R
VALPARAISO     CLOUDY    43  39  86 N8        30.15R

$$

LMZ046-743>745-290000-
SOUTHERN LAKE MICHIGAN

STATION/POSITION TIME  TEMP    WIND        PRES    WAVE
                       AIR SEA DIR/SP/G            HT
                 (UTC) (F)     (DEG/KT/KT) (MB)    (FT)
BURNS HARBOR     2207   38      20/  7/ 11 1021.7R
MICHIGAN CITY    2240   38      10/  7/  7   N/A

$$

INZ004-005-014>016-021>024-290000-
NORTH CENTRAL INDIANA

CITY           SKY/WX    TMP DP  RH WIND       PRES   REMARKS
ELKHART        CLOUDY    46  39  76 N6        30.12S
GOSHEN         CLOUDY    47  39  74 NE6       30.12R
LOGANSPORT +   CLOUDY    46  41  81 N8        30.12R
PERU/GRISSOM   CLOUDY    48  46  93 N8        30.09
ROCHESTER +    PTSUNNY   48  45  87 N6        30.12R
SOUTH BEND     CLOUDY    43  40  89 N9        30.14R
WARSAW +       CLOUDY    46  39  76 N5        30.12R

$$

INZ006>009-017-018-025>027-290000-
NORTHEAST INDIANA

CITY           SKY/WX    TMP DP  RH WIND       PRES   REMARKS
ANGOLA *+      CLOUDY    46  34  61 NE5       30.11R
AUBURN +       CLOUDY    48  41  76 N9        30.12R
FORT WAYNE     CLOUDY    50  43  77 N8        30.10R
HUNTINGTON +   CLOUDY    48  45  88 N7        30.10R
KENDALLVILLE + CLOUDY    47  41  79 N8        30.11R

$$

INZ028-029-035-036-043>045-051>053-290000-
WEST CENTRAL INDIANA

CITY           SKY/WX    TMP DP  RH WIND       PRES   REMARKS
CRAWFORDSVL +  CLOUDY    49  44  83 N10       30.10R
GREENCASTLE +  CLOUDY    54  45  71 N8        30.09R
LAFAYETTE      CLOUDY    47  41  80 N8        30.11R
TERRE HAUTE    CLOUDY    58  46  64 N8        30.08R

$$

INZ030>032-037>040-046>048-054>057-064-065-290000-
CENTRAL INDIANA

CITY           SKY/WX    TMP DP  RH WIND       PRES   REMARKS
CP ATTERBURY + CLOUDY    55  46  71 NW6       30.08R
COLUMBUS       CLOUDY    55  50  82 N7        30.07R
FISHERS *+     CLOUDY    52  48  87 N5        30.09R
FRANKFORT +    CLOUDY    51  45  77 N9        30.12R
GREENWOOD *+   CLOUDY    55  47  74 N7        30.08R
INDIANAPOLIS   CLOUDY    55  45  68 N9        30.08R
-EAGLE CREEK   CLOUDY    54  45  71 N9        30.08R
KOKOMO +       CLOUDY    49  44  83 N9        30.11R
MARION +       CLOUDY    49  44  83 N7        30.11R FOG
MT COMFORT *+  CLOUDY    52  46  82 N7        30.09R
SHELBYVILLE    CLOUDY    56  46  69 N7        30.07R
ZIONSVILLE +   CLOUDY    50  45  84 N10       30.10R

$$

INZ033-034-041-042-049-050-058-059-290000-
EAST CENTRAL INDIANA

CITY           SKY/WX    TMP DP  RH WIND       PRES   REMARKS
MUNCIE         CLOUDY    53  47  79 NE7       30.09R
RICHMOND +     CLOUDY    48  46  93 N5        30.09R FOG

$$

INZ060-061-067>069-081>083-085>088-290000-
SOUTHWEST INDIANA

CITY           SKY/WX    TMP DP  RH WIND       PRES   REMARKS
EVANSVILLE     CLOUDY    61  51  70 N6        30.06R
HUNTINGBURG *+ SUNNY     61  51  70 N8        30.05R
WASHINGTON +   CLOUDY    60  48  65 CALM      30.05R

$$

INZ062-063-066-070>080-084-089>092-290000-
SOUTH CENTRAL AND SOUTHEAST INDIANA

CITY           SKY/WX    TMP DP  RH WIND       PRES   REMARKS
BEDFORD +      CLOUDY    59  48  67 N6        30.05R
BLOOMINGTON    CLOUDY    57  47  69 N8        30.06R
MADISON *+     CLOUDY    57  48  72 CALM      30.08R
NORTH VERNON + CLOUDY    57  50  77 N3        30.07R
SEYMOUR +      CLOUDY    59  48  67 NE8       30.07R

$$





USA.gov is the U.S. government's official web portal to all federal, state and local government web resources and services.